,

(GMT )
Isachsen

Weather History for CWIC - July, 2013

Change the Weather History Date:

Wednesday, July 24, 2013

  Actual Average Record
Temperature  
Mean Temperature 34 °F -  
Max Temperature 36 °F - - ()
Min Temperature 32 °F - - ()
Degree Days  
Heating Degree Days 31    
Moisture  
Dew Point 33 °F    
Average Humidity 94    
Maximum Humidity 100    
Minimum Humidity 85    
Precipitation  
Precipitation 0.47 in - - ()
Sea Level Pressure  
Sea Level Pressure 29.50 in    
Wind  
Wind Speed 20 mph ()    
Max Wind Speed 41 mph    
Max Gust Speed 48 mph    
T = Trace of Precipitation, MM = Missing Value Source: Averaged Metar Reports

Daily Weather History Graph

Daily Weather History Graph

Search for Another Location

Airport or City:

Trip Planner

Search our weather history database for the weather conditions in past years. The results will help you decide how hot, cold, wet, or windy it might be!

Date:

Astronomy

Dec. 31, 1969 Rise Set
Actual Time Sun does not rise Sun does not rise
Civil Twilight Sun does not rise Sun does not rise
Nautical Twilight Sun does not rise Sun does not rise
Astronomical Twilight Sun does not rise Sun does not rise
Moon 10:54 PM MDT (7/24) 5:10 AM MDT (7/24)
Length of Visible Light 24h 00m
Length of Day
24h 00m
Waning Gibbous, 94% of the Moon is Illuminated
Jul 24
Waning Gibbous
Jul 29
Last Quarter
Aug 6
New
Aug 14
First Quarter
Aug 20
Full

Hourly Weather History & Observations

Time (MDT) Temp. Windchill Dew Point Humidity Pressure Visibility Wind Dir Wind Speed Gust Speed Precip Events Conditions
12:00 AM 42 °F - 39 °F 86% 29.52 in - South 36.8 mph - -  
12:00 AM 41.9 °F 30.0 °F 39.2 °F 90% 29.52 in - South 36.8 mph 43.7 mph N/A   Unknown
1:00 AM 41.4 °F 28.7 °F 39.6 °F 93% 29.50 in - South 41.4 mph 48.3 mph 0.04 in   Unknown
2:00 AM 40.6 °F 28.1 °F 39.7 °F 97% 29.48 in - South 38.0 mph 44.9 mph 0.07 in   Unknown
3:00 AM 38.3 °F 25.4 °F 37.6 °F 97% 29.47 in - South 34.5 mph - 0.11 in   Unknown
4:00 AM 36.7 °F 24.9 °F 36.1 °F 98% 29.47 in - South 25.3 mph 33.4 mph 0.11 in   Unknown
5:00 AM 35.1 °F 25.2 °F 34.7 °F 99% 29.46 in - SSW 16.1 mph - 0.09 in   Unknown
6:00 AM 33 °F - 32 °F 96% 29.46 in - WSW 10.4 mph - -  
6:00 AM 32.5 °F 24.8 °F 32.4 °F 99% 29.46 in - WSW 9.2 mph - 0.05 in   Unknown
7:00 AM 32.9 °F 24.1 °F 32.9 °F 100% 29.47 in - West 11.5 mph - 0.01 in   Unknown
8:00 AM 33.8 °F 27.0 °F 33.6 °F 99% 29.47 in - West 8.1 mph - N/A   Unknown
9:00 AM 33.6 °F 24.6 °F 33.3 °F 99% 29.47 in - West 12.7 mph - N/A   Unknown
10:00 AM 33.8 °F 24.8 °F 32.9 °F 96% 29.47 in - West 12.7 mph - N/A   Unknown
11:00 AM 33.8 °F 25.3 °F 33.1 °F 97% 29.49 in - West 11.5 mph - N/A   Unknown
12:00 PM 33 °F - 32 °F 96% 29.50 in - West 15.0 mph - -  
12:00 PM 33.3 °F 23.2 °F 32.4 °F 96% 29.50 in - West 15.0 mph - N/A   Unknown
1:00 PM 34.0 °F 24.2 °F 31.5 °F 90% 29.50 in - WNW 15.0 mph - N/A   Unknown
2:00 PM 34.2 °F 25.2 °F 31.6 °F 90% 29.52 in - West 12.7 mph - N/A   Unknown
3:00 PM 34.3 °F 26.5 °F 31.5 °F 89% 29.52 in - WSW 10.4 mph - N/A   Unknown
4:00 PM 34.0 °F 27.2 °F 32.2 °F 93% 29.52 in - SSW 8.1 mph - N/A   Unknown
5:00 PM 34.0 °F 26.0 °F 31.5 °F 90% 29.53 in - WSW 10.4 mph - N/A   Unknown
6:00 PM 34 °F - 31 °F 85% 29.52 in - WSW 8.1 mph - -  
6:00 PM 33.8 °F 27.0 °F 31.1 °F 90% 29.52 in - SW 8.1 mph - N/A   Unknown
7:00 PM 32.4 °F 23.5 °F 32.0 °F 99% 29.52 in - SW 11.5 mph - 0.02 in   Unknown
8:00 PM 32.5 °F 22.7 °F 32.0 °F 98% 29.52 in - SW 13.8 mph - N/A   Unknown
9:00 PM 32.2 °F 22.3 °F 30.6 °F 94% 29.52 in - SW 13.8 mph - N/A   Unknown
10:00 PM 32.4 °F 22.5 °F 30.6 °F 93% 29.51 in - SSW 13.8 mph - N/A   Unknown
11:00 PM 32.7 °F 21.8 °F 31.1 °F 94% 29.50 in - South 17.3 mph - N/A   Unknown